Showing default

SPACEVAN-002, 68424

Orbit data source: Space-Track

SPACEVAN-002, 68424 is a payload satellite owned by Exotrail (FR) in SSO that was launched on Mon, 30 Mar 2026 UTC via an FALCON 9 launch vehicle from the Air Force Western Test Range (AFWTR). Payload-class satellites include a variety of spacecraft equipped with specific instruments for various scientific and technological missions. These include communications satellites like Starlink; space stations such as the ISS; scientific satellites like the Hubble; Earth observation satellites from companies like Planet Labs, Umbra, and HawkEye 360; GPS; miniature CubeSats for education and research; and military/defense satellites.

Loading next visibility...
Identifier
68424, 2026-067J
Orbit
SSO
Country
Flag of FRFR
Related business
Manufacturer
NanoAvionics
Mission
Operational spacecraft
Bus & Motor
MP42, Unknown motor
Mass
125 kg wet, ~120 kg dry
Launch date (UTC)
2026-03-30 (1 month ago)
Launch vehicle
FALCON 9
Launch site
Air Force Western Test Range (AFWTR)
Object type
Payload
Rocket body
Debris
Shape & HBR
Unknown shape, 14.5 m
Radar Cross Section
RCS unknown

Expand to show TLE details & history
Last TLE update: 15 hours ago

TLE from 15 hours ago
0 SPACEVAN-002
1 68424U 26067J   26127.14605859  .00004986  00000-0  24857-3 0  9997
2 68424  97.4503  86.1993 0002642 138.9030 221.2403 15.17988152  5712
Epoch: 2026-05-07T03:30Z
TLE epoch observation values (Epoch: 2026-05-07T03:30:19.462Z)
Latitude
-0.00004°
Longitude
168.62182°
Altitude
516.377 km
Speed
7.605 km/s
True Right ascension
05h 44m 47s
True Declination
0° 00' 00"
Sunlit
Object was in daylight at epoch
Visualization orbit readout
Latitude
Unknown
Longitude
Unknown
Altitude
Unknown
Speed
Unknown
Apparent Right ascension
Unknown
Apparent Declination
Unknown
Sunlit
N/A
Visualization observer readout
Local Sidereal Time
02:58:37
Azimuth
Unknown
Elevation
Unknown
Doppler factor
Unknown
Orbital elements
Apogee altitude
510.712 km
Perigee altitude
507.073 km
Semi-major axis
6,887.029 km
Eccentricity
0.00026
Inclination
97.4503°
RAAN
86.1993°
Arg. of periapsis
138.903°
True anomaly
221.22035°
Mean anomaly
221.2403°
Eccentric anomaly
221.23032°
Mean motion
3.79748 °/min
Orbital period
94.8 mins
BSTAR
0.00024857
Loading maneuver chart data...
Computing Atmospheric mass density...
Loading historical data...
Loading historical data...
Loading historical data...
Loading historical data...
Loading historical data...
Loading historical data...
Loading historical data...

Documentation

Showing up to 5 results
|